Location: L�tisburg
(47.3947°N, 9.0820°E)
Time: 22:12:21
(UTC+00:00)

Okean 3 - Pass Details

Date: 03 March 2021
Orbit: 577 x 600 km, 82.5° (Epoch: 14 April)

Event Time Altitude Azimuth Distance (km) Brightness Sun altitude
Rises 18:35:56 0° 358° (N) 2,832 7.1 -15.0°
Reaches altitude 10° 18:38:19 10° 8° (N) 1,930 6.1 -15.4°
Maximum altitude 18:42:12 33° 74° (ENE) 1,007 4.1 -16.1°
Enters shadow 18:42:59 31° 96° (E) 1,061 4.2 -16.2°
